[[{"header":{"parameterUnit":"m.s-1","parameterCategory":1,"la1":30.2991,"la2":30.254,"lo1":-89.0895,"lo2":-89.0444,"dy":0.0017,"dx":0.0017,"nx":28,"ny":28,"refTime":"2024-08-03T21:00:00:Z","depth":0,"parameterNumber":2,"parameterNumberName":"U-component_of_WINDS"},"data":[0,0,0,0,0,0,0,0,0,0,0,0,0,0,0,0,0,0,0,0,0,0,0,0,0,0,0,0,0,0,0,0,0,0,0,0,0,0,0,0,0,0,0,0,0,0,0,0,0,0,0,0,0,0,0,0,0,0,0.9063,0.9063,0,0.9046,0.9046,0.9045,0.9007,0.9006,0.9006,0.9005,0.8988,0.8988,0.8989,0,0,0,0,0,0,0,0,0,0,0,0,0,0.9065,0.9065,0.9063,0.9063,0.9063,0.9046,0.9046,0.9045,0.9007,0.9006,0.9005,0.9004,0.8988,0.8988,0.8989,0,0,0,0,0,0,0,0,0,0,0,0,0,0.9058,0.9065,0.9063,0.9042,0.9039,0.9046,0.9046,0.9045,0.9007,0.9006,0.9005,0.9004,0.8988,0.8988,0.8989,0.9015,0,0,0.899,0.899,0,0,0,0,0,0,0,0,0.9058,0.9058,0.9045,0.9043,0.9041,0.9027,0.904,0.9035,0.9008,0.902,0.9005,0.9003,0.9002,0.9001,0.9001,0.9014,0.9014,0.899,0.899,0.8991,0.8991,0,0,0,0,0,0,0,0.9059,0.9058,0.9056,0.9045,0.9042,0.9033,0.9031,0.9039,0.9018,0.9019,0.9016,0.9014,0.9001,0.9001,0.9,0.9013,0.899,0.8991,0.8991,0.8991,0.905,0.9051,0,0,0,0,0,0,0.9062,0.9059,0.9057,0.9056,0.9047,0.9034,0.9032,0.9033,0.9018,0.9014,0.9015,0.9012,0.9,0.9,0.8999,0.9031,0.8991,0.8991,0.8991,0.9049,0.905,0.9052,0,0,0,0,0,0,0.9062,0.9062,0.9058,0.9057,0.9055,0.9036,0.9037,0.9033,0.9033,0.9015,0.9011,0.9019,0.8999,0.8999,0.9012,0.9029,0.8991,0.8992,0.9047,0.9049,0.9051,0.9093,0,0,0,0,0,0,0.9062,0.9063,0.9072,0.9057,0.9055,0.907,0.9038,0.9034,0.9033,0.903,0.9017,0.9014,0.8998,0.9012,0.9012,0.9029,0.8992,0.9045,0.9048,0.905,0.909,0.9096,0.9101,0,0,0,0,0,0.9063,0.9084,0.9072,0.9072,0.9066,0.9071,0.907,0.9051,0.9035,0.9045,0.9034,0.9014,0.9027,0.9013,0.9014,0.9031,0.9044,0.9047,0.905,0.9087,0.9094,0.9101,0,0,0,0,0,0,0.9101,0.9082,0.9069,0.9086,0.908,0.9064,0.9076,0.906,0.9059,0.9055,0.9032,0.903,0.9047,0.904,0.9025,0.9057,0.9033,0.9036,0.9061,0.9068,0.9073,0.9075,0.8992,0,0,0,0,0,0.9112,0.9116,0.9099,0.9116,0.9114,0.9096,0.9097,0.9083,0.9076,0.9074,0.9064,0.9059,0.9062,0.9064,0.9066,0.9088,0.9086,0.9101,0.9106,0.9111,0.9115,0.9128,0.9134,0.9061,0.9061,0.9061,0,0,0.9133,0.9123,0.9128,0.9123,0.9118,0.9124,0.9094,0.9101,0.9106,0.9075,0.9087,0.908,0.9073,0.9091,0.9099,0.9086,0.9134,0.9115,0.9119,0.912,0.9131,0.9138,0.9145,0.9063,0.9063,0.9062,0,0,0.9176,0.9169,0.9182,0.9178,0.9169,0.9157,0.9161,0.9148,0.9142,0.9153,0.9131,0.9136,0.9142,0.9138,0.9137,0.918,0.9163,0.9182,0.9212,0.9225,0.923,0.9236,0.9252,0.9259,0.9185,0.9185,0.9185,0,0.9204,0.9212,0.9192,0.9201,0.9201,0.9173,0.9188,0.9184,0.9177,0.9178,0.9164,0.9171,0.9164,0.9182,0.9193,0.9193,0.9197,0.9183,0.9231,0.9236,0.924,0.9256,0.9263,0.9187,0.9187,0.9187,0.9186,0,0.9248,0.9254,0.9267,0.9261,0.9262,0.9274,0.9256,0.9259,0.9246,0.9236,0.9249,0.924,0.924,0.9243,0.923,0.926,0.9252,0.9235,0.9211,0.925,0.9265,0.9271,0.9191,0.919,0.9189,0.9188,0,0,0.9314,0.9298,0.9303,0.9301,0.929,0.9295,0.9306,0.9307,0.9311,0.9307,0.9317,0.9323,0.9307,0.9306,0.9292,0.9304,0.9341,0.9285,0.9285,0.9297,0.9375,0.9389,0.9396,0.9329,0.933,0.9331,0.9376,0,0.9356,0.9374,0.9356,0.9379,0.9385,0.936,0.937,0.9365,0.9356,0.9361,0.9351,0.9356,0.9334,0.9334,0.9344,0.9334,0.9356,0.933,0.9339,0.934,0.9343,0.9403,0.9418,0.9461,0.9381,0.9382,0.9383,0,0.9406,0.9405,0.9428,0.9418,0.942,0.9429,0.9429,0.9433,0.9428,0.9421,0.942,0.9404,0.9415,0.9391,0.9408,0.939,0.9393,0.9389,0.939,0.9391,0.9364,0.9407,0.9474,0.9481,0.9392,0.9391,0.939,0,0.9454,0.9459,0.9473,0.9472,0.946,0.9467,0.9463,0.9456,0.9458,0.9458,0.9459,0.946,0.9461,0.9463,0.9448,0.9431,0.9467,0.9441,0.9462,0.9463,0.9471,0.9471,0.9541,0.9472,0.9471,0.9471,0.9471,0,0.9502,0.9518,0.9495,0.9504,0.9521,0.9501,0.9519,0.9511,0.9506,0.9514,0.9492,0.9501,0.9479,0.9486,0.9474,0.949,0.949,0.9486,0.9483,0.9488,0.9489,0.949,0.9487,0.9473,0.9473,0.9472,0.9472,0,0.9559,0.9544,0.9558,0.9546,0.9544,0.9557,0.9547,0.9555,0.9545,0.9556,0.9557,0.9542,0.9548,0.9533,0.9537,0.9529,0.9553,0.9544,0.9555,0.9553,0.9575,0.9574,0.9649,0.9658,0.9582,0.9583,0.9583,0,0.9591,0.9602,0.9592,0.9596,0.9592,0.9599,0.9601,0.9582,0.9585,0.9581,0.9591,0.9595,0.9598,0.961,0.9599,0.9602,0.9595,0.9621,0.9595,0.9601,0.9597,0.9597,0.9598,0.9626,0.9627,0.9628,0.9628,0,0.9651,0.9643,0.9647,0.9648,0.9652,0.9652,0.9651,0.9655,0.9635,0.964,0.9647,0.9649,0.9654,0.9659,0.966,0.9656,0.964,0.9637,0.9642,0.9648,0.9655,0.9653,0.957,0.9635,0.9634,0.9634,0.9634,0.9633,0.9697,0.9707,0.9701,0.9706,0.9704,0.9703,0.9711,0.9703,0.9707,0.971,0.9699,0.9708,0.9704,0.9704,0.9702,0.9709,0.9698,0.9705,0.9707,0.971,0.9714,0.9653,0.9709,0.9709,0.9709,0.9709,0.9709,0,0.9757,0.9752,0.9757,0.9757,0.9761,0.9745,0.9743,0.9748,0.9757,0.9754,0.9758,0.9766,0.9771,0.9762,0.9766,0.9774,0.9767,0.9776,0.9775,0.9775,0.9723,0.9719,0.9782,0.9782,0.9782,0.9782,0.9782,0.9782,0.9788,0.9804,0.9796,0.9811,0.9806,0.9816,0.9816,0.9816,0.9814,0.9825,0.9829,0.9823,0.9818,0.9822,0.9826,0.9823,0.9827,0.9839,0.9834,0.9786,0.9779,0.9772,0.9768,0.9839,0.9839,0.9885,0.9885,0.9885]},{"header":{"parameterUnit":"m.s-1","parameterCategory":1,"la1":30.2991,"la2":30.254,"lo1":-89.0895,"lo2":-89.0444,"dy":0.0017,"dx":0.0017,"nx":28,"ny":28,"refTime":"2024-08-03T21:00:00:Z","depth":0,"parameterNumber":3,"parameterNumberName":"V-component_of_WINDS"},"data":[0,0,0,0,0,0,0,0,0,0,0,0,0,0,0,0,0,0,0,0,0,0,0,0,0,0,0,0,0,0,0,0,0,0,0,0,0,0,0,0,0,0,0,0,0,0,0,0,0,0,0,0,0,0,0,0,0,0,-0.2375,-0.2374,0,-0.2288,-0.2287,-0.2286,-0.2233,-0.2233,-0.2232,-0.2232,-0.2143,-0.2141,-0.2139,0,0,0,0,0,0,0,0,0,0,0,0,0,-0.2496,-0.2494,-0.2375,-0.2374,-0.2373,-0.2288,-0.2287,-0.2286,-0.2233,-0.2233,-0.2232,-0.2232,-0.2144,-0.2141,-0.2138,0,0,0,0,0,0,0,0,0,0,0,0,0,-0.243,-0.2493,-0.2375,-0.2336,-0.2332,-0.2288,-0.2287,-0.2285,-0.2233,-0.2233,-0.2232,-0.2232,-0.2144,-0.2141,-0.2138,-0.2126,0,0,-0.2128,-0.2127,0,0,0,0,0,0,0,0,-0.2434,-0.2425,-0.2343,-0.2339,-0.2334,-0.2271,-0.2297,-0.2232,-0.2233,-0.2271,-0.2232,-0.2232,-0.2186,-0.2179,-0.2164,-0.2122,-0.2118,-0.2128,-0.2126,-0.2125,-0.2124,0,0,0,0,0,0,0,-0.2438,-0.2429,-0.234,-0.2342,-0.2336,-0.2323,-0.2314,-0.2284,-0.2231,-0.2267,-0.2263,-0.2254,-0.2183,-0.2167,-0.2161,-0.2117,-0.2128,-0.2125,-0.2123,-0.2122,-0.2062,-0.2062,0,0,0,0,0,0,-0.2449,-0.2433,-0.2343,-0.2338,-0.2384,-0.2322,-0.231,-0.2292,-0.2232,-0.2222,-0.2254,-0.2252,-0.2173,-0.2165,-0.2158,-0.214,-0.2125,-0.2122,-0.212,-0.2061,-0.2062,-0.2062,0,0,0,0,0,0,-0.2452,-0.2441,-0.2347,-0.2384,-0.2371,-0.232,-0.2299,-0.229,-0.2274,-0.2222,-0.2212,-0.2247,-0.2172,-0.2162,-0.2135,-0.2136,-0.212,-0.2117,-0.2061,-0.2061,-0.2062,-0.2105,0,0,0,0,0,0,-0.2455,-0.2443,-0.2437,-0.2385,-0.2369,-0.2325,-0.2299,-0.2289,-0.2268,-0.2264,-0.2212,-0.2204,-0.2171,-0.214,-0.2131,-0.2132,-0.2115,-0.2061,-0.2061,-0.2062,-0.2103,-0.2107,-0.211,0,0,0,0,0,-0.246,-0.2453,-0.2437,-0.2427,-0.2362,-0.2325,-0.2316,-0.2279,-0.2269,-0.2263,-0.223,-0.2205,-0.2138,-0.2137,-0.2127,-0.2127,-0.206,-0.2061,-0.2062,-0.2102,-0.2106,-0.211,0,0,0,0,0,0,-0.2507,-0.2445,-0.2427,-0.2403,-0.237,-0.2316,-0.2308,-0.2285,-0.2254,-0.2251,-0.2206,-0.2195,-0.2172,-0.2146,-0.2147,-0.2113,-0.2096,-0.2095,-0.213,-0.2134,-0.2137,-0.2144,-0.2112,0,0,0,0,0,-0.2515,-0.249,-0.2437,-0.2421,-0.2405,-0.236,-0.2342,-0.2316,-0.228,-0.2266,-0.223,-0.2196,-0.2167,-0.2149,-0.2119,-0.2099,-0.2088,-0.2094,-0.2098,-0.2101,-0.21,-0.2089,-0.2091,-0.2064,-0.2064,-0.2064,0,0,-0.253,-0.2493,-0.248,-0.2429,-0.2401,-0.2376,-0.2348,-0.2323,-0.2305,-0.2262,-0.2234,-0.2207,-0.2166,-0.2142,-0.213,-0.212,-0.2105,-0.2102,-0.2105,-0.2102,-0.209,-0.2092,-0.2095,-0.2065,-0.2065,-0.2065,0,0,-0.2545,-0.2515,-0.2498,-0.247,-0.2427,-0.2397,-0.2393,-0.2344,-0.2324,-0.2295,-0.2263,-0.224,-0.2191,-0.2163,-0.2143,-0.2149,-0.2126,-0.2141,-0.2159,-0.2148,-0.215,-0.2152,-0.2155,-0.2156,-0.2141,-0.2141,-0.2141,0,-0.257,-0.2532,-0.2493,-0.247,-0.2449,-0.2409,-0.2392,-0.2367,-0.2317,-0.2303,-0.2293,-0.2231,-0.2201,-0.217,-0.2172,-0.2157,-0.2151,-0.2147,-0.2153,-0.2154,-0.2155,-0.2158,-0.2159,-0.2143,-0.2143,-0.2142,-0.2142,0,-0.2564,-0.2539,-0.2531,-0.2484,-0.2461,-0.2442,-0.24,-0.2382,-0.2359,-0.233,-0.2302,-0.2264,-0.2226,-0.2217,-0.2193,-0.2183,-0.2179,-0.2162,-0.2144,-0.2161,-0.2162,-0.2163,-0.2146,-0.2145,-0.2145,-0.2144,0,0,-0.2607,-0.2539,-0.2536,-0.2515,-0.2465,-0.2445,-0.2424,-0.2387,-0.2373,-0.234,-0.2322,-0.2282,-0.2266,-0.2243,-0.2216,-0.2206,-0.2215,-0.219,-0.2188,-0.2196,-0.2202,-0.2216,-0.2217,-0.2199,-0.2199,-0.2199,-0.2206,0,-0.2615,-0.2576,-0.254,-0.2513,-0.249,-0.2452,-0.2434,-0.2402,-0.2374,-0.235,-0.232,-0.2293,-0.2273,-0.2259,-0.2248,-0.2216,-0.2215,-0.2215,-0.2181,-0.2181,-0.2193,-0.2218,-0.2232,-0.224,-0.2206,-0.2206,-0.2206,0,-0.262,-0.2589,-0.256,-0.2514,-0.2502,-0.2487,-0.2451,-0.2428,-0.2391,-0.2372,-0.2347,-0.2319,-0.2295,-0.2281,-0.2248,-0.2249,-0.2233,-0.2215,-0.2214,-0.221,-0.2195,-0.2215,-0.2242,-0.2244,-0.2206,-0.2206,-0.2206,0,-0.2654,-0.2605,-0.2582,-0.2565,-0.251,-0.25,-0.2476,-0.2439,-0.2419,-0.2388,-0.2375,-0.2342,-0.2324,-0.2299,-0.2262,-0.2255,-0.2234,-0.2216,-0.2217,-0.2218,-0.2215,-0.2215,-0.2241,-0.2204,-0.2204,-0.2204,-0.2204,0,-0.2668,-0.2652,-0.2597,-0.2583,-0.2564,-0.2523,-0.2506,-0.2479,-0.2446,-0.2427,-0.2392,-0.2374,-0.2327,-0.2304,-0.2275,-0.2253,-0.2245,-0.2229,-0.2221,-0.2232,-0.2234,-0.2221,-0.222,-0.2204,-0.2204,-0.2204,-0.2204,0,-0.2703,-0.2666,-0.2638,-0.2588,-0.2576,-0.2564,-0.2522,-0.2507,-0.2478,-0.2453,-0.2445,-0.24,-0.237,-0.2332,-0.229,-0.2271,-0.2253,-0.2241,-0.2265,-0.2261,-0.2265,-0.2266,-0.2283,-0.2284,-0.2247,-0.2247,-0.2248,0,-0.2714,-0.2701,-0.2651,-0.2635,-0.2613,-0.2588,-0.2568,-0.2528,-0.2509,-0.2467,-0.2457,-0.2425,-0.2397,-0.2353,-0.2316,-0.2284,-0.2272,-0.228,-0.2267,-0.2278,-0.2273,-0.2274,-0.2273,-0.2284,-0.2284,-0.2285,-0.2285,0,-0.2739,-0.2721,-0.2694,-0.2661,-0.2639,-0.2611,-0.2581,-0.2571,-0.2524,-0.2505,-0.2475,-0.2453,-0.2411,-0.238,-0.2344,-0.232,-0.2295,-0.229,-0.2288,-0.2299,-0.2314,-0.2307,-0.2275,-0.2289,-0.2289,-0.2289,-0.2288,-0.2288,-0.2762,-0.2749,-0.2712,-0.2684,-0.2657,-0.2631,-0.2614,-0.2584,-0.2558,-0.2521,-0.2499,-0.247,-0.2434,-0.2383,-0.236,-0.2337,-0.2327,-0.2325,-0.2324,-0.2325,-0.2329,-0.2318,-0.233,-0.2329,-0.2329,-0.2329,-0.2329,0,-0.2785,-0.276,-0.2734,-0.2694,-0.2672,-0.2651,-0.2617,-0.26,-0.2575,-0.2543,-0.2517,-0.2483,-0.2453,-0.2415,-0.2382,-0.2371,-0.2359,-0.2364,-0.2364,-0.236,-0.2339,-0.2343,-0.2374,-0.2374,-0.2374,-0.2374,-0.2374,-0.2374,-0.2795,-0.2772,-0.275,-0.2714,-0.2688,-0.266,-0.2643,-0.2618,-0.2593,-0.2557,-0.2532,-0.2507,-0.2473,-0.2438,-0.2409,-0.2399,-0.2389,-0.2397,-0.2383,-0.2365,-0.2361,-0.2357,-0.2361,-0.2395,-0.2395,-0.2406,-0.2406,-0.2406]}]]